WI5KEY Weather Reports


time (UTC)temp
C
wind
direction
speed
KPH
gust
KPH
rain 1hr
cm
rain 24hr
cm
rain mn
cm
humidity
%
barometer
mb
20260510191608 30 165 9.7 30.6 0.00 0.00 0.00 70 1012.5
20260510190056 30 120 9.7 25.7 0.00 0.00 0.00 69 1012.5
20260510184556 30 120 17.7 30.6 0.00 0.00 0.00 69 1012.7
20260510183057 30 115 14.5 22.5 0.00 0.00 0.00 69 1012.9
20260510181552 29 125 11.3 25.7 0.00 0.00 0.00 70 1013.2
20260510180050 29 121 6.4 22.5 0.00 0.00 0.00 71 1013.3
20260510174550 29 119 11.3 25.7 0.00 0.00 0.00 70 1013.4
20260510173055 29 133 8.0 16.1 0.00 0.00 0.00 70 1013.5
20260510171553 28 119 12.9 24.1 0.00 0.00 0.00 71 1013.5
20260510170042 28 50 9.7 22.5 0.00 0.00 0.00 74 1013.6
20260510164545 28 140 4.8 17.7 0.00 0.00 0.00 75 1013.6
20260510163039 28 122 11.3 22.5 0.00 0.00 0.00 75 1013.7
20260510161636 27 124 14.5 22.5 0.00 0.00 0.00 76 1013.7
20260510160035 27 123 8.0 20.9 0.00 0.00 0.00 78 1013.6
20260510154532 26 127 11.3 17.7 0.00 0.00 0.00 80 1013.5
20260510153036 26 79 6.4 17.7 0.00 0.00 0.00 84 1013.4
20260510151525 25 142 9.7 17.7 0.00 0.00 0.00 84 1013.3
20260510150021 25 125 8.0 14.5 0.00 0.00 0.00 88 1013.2
20260510144619 24 131 3.2 12.9 0.00 0.00 0.00 93 1013.0
20260510143019 23 125 4.8 11.3 0.00 0.00 0.00 95 1012.9
20260510141515 22 205 3.2 9.7 0.00 0.00 0.00 95 1012.8
20260510140013 22 182 3.2 6.4 0.00 0.00 0.00 95 1012.7
20260510134510 22 232 1.6 8.0 0.00 0.00 0.00 95 1012.2
20260510133118 22 217 4.8 11.3 0.00 0.00 0.00 95 1012.1
20260510131507 22 198 0.0 4.8 0.00 0.00 0.00 95 1012.0
20260510130005 21 198 1.6 8.0 0.00 0.00 0.00 95 1011.8
20260510124502 21 205 6.4 14.5 0.00 0.00 0.00 94 1011.4
20260510123002 21 205 8.0 16.1 0.00 0.00 0.00 94 1011.1
20260510121600 21 188 1.6 9.7 0.00 0.00 0.00 94 1011.2
20260510120059 20 218 3.2 11.3 0.00 0.00 0.00 93 1011.0
20260510114605 20 194 3.2 8.0 0.00 0.00 0.00 93 1010.9
20260510113058 20 161 6.4 9.7 0.00 0.00 0.00 92 1010.9
20260510111601 20 177 3.2 6.4 0.00 0.00 0.00 92 1011.1
20260510110056 20 171 3.2 6.4 0.00 0.00 0.00 91 1011.0
20260510104554 20 169 0.0 1.6 0.00 0.00 0.00 90 1011.1
20260510103053 20 169 0.0 0.0 0.00 0.00 0.00 90 1011.2
20260510101553 20 169 0.0 4.8 0.00 0.00 0.00 90 1011.3
20260510100050 20 169 6.4 9.7 0.00 0.00 0.00 90 1011.3
20260510094548 21 172 1.6 4.8 0.00 0.00 0.00 90 1011.1
20260510093047 21 173 3.2 8.0 0.00 0.00 0.00 89 1011.1
20260510091548 21 157 4.8 12.9 0.00 0.00 0.00 89 1011.0
20260510090044 21 149 6.4 12.9 0.00 0.00 0.00 88 1011.0
20260510084541 21 178 3.2 6.4 0.00 0.00 0.00 88 1011.0
20260510083038 21 178 3.2 6.4 0.00 0.00 0.00 87 1010.9
20260510081541 22 178 0.0 3.2 0.00 0.00 0.00 87 1010.8
20260510080035 22 178 1.6 4.8 0.00 0.00 0.00 87 1010.8
20260510074533 22 178 0.0 4.8 0.00 0.00 0.00 86 1010.7
20260510073034 22 176 1.6 6.4 0.00 0.00 0.00 86 1010.7
20260510071532 22 166 6.4 9.7 0.00 0.00 0.00 86 1010.5
20260510070029 22 169 1.6 9.7 0.00 0.00 0.00 86 1010.6
20260510064532 23 173 3.2 8.0 0.00 0.00 0.00 86 1010.6
20260510063034 23 173 1.6 9.7 0.00 0.00 0.00 86 1010.6
20260510061527 23 155 3.2 9.7 0.00 0.00 0.00 86 1010.7
20260510060025 23 155 3.2 11.3 0.00 0.00 0.00 85 1010.8
20260510054520 23 165 3.2 9.7 0.00 0.00 0.00 85 1010.6
20260510053019 24 165 3.2 9.7 0.00 0.00 0.00 84 1010.6
20260510051517 24 173 6.4 11.3 0.00 0.00 0.00 84 1010.5
20260510050018 24 157 6.4 12.9 0.00 0.00 0.00 83 1010.4
20260510044513 25 151 6.4 12.9 0.00 0.00 0.00 81 1010.2
20260510043012 25 169 8.0 12.9 0.00 0.00 0.00 81 1010.2
20260510041511 25 151 9.7 16.1 0.00 0.00 0.00 80 1010.1
20260510040015 25 165 8.0 14.5 0.00 0.00 0.00 80 1010.1
20260510034509 25 148 9.7 16.1 0.00 0.00 0.00 79 1009.9
20260510033008 25 136 12.9 20.9 0.00 0.00 0.00 78 1009.9
20260510031515 25 146 4.8 8.0 0.00 0.00 0.00 76 1009.4
20260510030010 26 148 6.4 9.7 0.00 0.00 0.00 75 1009.2
20260510024507 26 148 4.8 9.7 0.00 0.00 0.00 73 1009.0
20260510023005 26 128 6.4 8.0 0.00 0.00 0.00 73 1008.9
20260510021505 26 135 4.8 8.0 0.00 0.00 0.00 72 1008.8
20260510020006 27 134 0.0 3.2 0.00 0.00 0.00 72 1008.7
20260510014506 27 134 0.0 4.8 0.00 0.00 0.00 70 1008.6
20260510013003 27 134 1.6 4.8 0.00 0.00 0.00 70 1008.3
20260510011503 28 134 4.8 8.0 0.00 0.00 0.00 70 1008.2
20260510010003 28 137 6.4 12.9 0.00 0.00 0.00 68 1008.1
20260510004600 29 146 8.0 11.3 0.00 0.00 0.00 64 1008.0
20260510003106 30 153 6.4 14.5 0.00 0.00 0.00 62 1007.8
20260510001600 30 155 8.0 16.1 0.00 0.00 0.00 59 1007.7
20260510000100 30 148 8.0 14.5 0.00 0.00 0.00 60 1007.6
20260509234600 30 149 11.3 19.3 0.00 0.00 0.00 58 1007.5
20260509233056 31 143 9.7 17.7 0.00 0.00 0.00 58 1007.4
20260509231557 31 172 8.0 17.7 0.00 0.00 0.00 57 1007.1
20260509230056 31 220 8.0 16.1 0.00 0.00 0.00 58 1007.3
20260509224559 31 207 9.7 17.7 0.00 0.00 0.00 54 1007.2
20260509223051 32 197 6.4 12.9 0.00 0.00 0.00 51 1007.5
20260509221602 32 201 6.4 17.7 0.00 0.00 0.00 54 1007.5
20260509220048 32 192 6.4 14.5 0.00 0.00 0.00 51 1007.5
20260509214545 32 197 3.2 9.7 0.00 0.00 0.00 55 1007.6
20260509213044 32 216 1.6 14.5 0.00 0.00 0.00 50 1007.7
20260509211544 33 218 8.0 14.5 0.00 0.00 0.00 52 1007.9
20260509210044 33 197 3.2 14.5 0.00 0.00 0.00 55 1008.0
20260509204538 33 253 9.7 16.1 0.00 0.00 0.00 56 1008.3
20260509203036 32 174 3.2 17.7 0.00 0.00 0.00 56 1008.4
20260509201544 32 238 1.6 12.9 0.00 0.00 0.00 55 1008.6
20260509200034 32 209 6.4 14.5 0.00 0.00 0.00 55 1008.8
20260509194532 32 223 4.8 14.5 0.00 0.00 0.00 57 1009.2
20260509193031 32 225 9.7 17.7 0.00 0.00 0.00 58 1009.6